Regional Weather Roundup
Issued by NWS Charleston, SC

Current Version | Previous Version | Graphics & Text | Print | Product List | Glossary On
Versions: 1 2 3 4 5 6 7 8 9 10 11 12 13 14 15 16 17 18 19 20 21 22 23 24 25 26 27 28 29 30 31 32 33 34 35 36 37 38 39 40 41 42 43 44 45 46 47 48 49 50
000 ASUS42 KCHS 050712 RWRCHS REGIONAL WEATHER ROUNDUP NATIONAL WEATHER SERVICE CHARLESTON SC 200 AM EST MON DEC 05 2016 NOTE: "FAIR" INDICATES FEW OR NO CLOUDS BELOW 12,000 FEET WITH NO SIGNIFICANT WEATHER AND/OR OBSTRUCTIONS TO VISIBILITY. NOT ALL STATIONS ARE QUALITY CONTROLLED. USE DATA WITH CAUTION... ESPECIALLY DEWPOINT OBSERVATIONS. SCZ027-030-031-034>040-042>050-050800- ...SOUTHEAST SOUTH CAROLINA... CITY SKY/WX TMP DP RH WIND PRES REMARKS N CHARLESTON LGT RAIN 69 65 86 SW13 29.96F WATERFRONT PRK N/A 68 65 90 S12 29.96F MOUNT PLEASANT NOT AVBL JOHNS ISLAND PTSUNNY 70 66 88 S12 29.97S PINOPOLIS NOT AVBL MONCKS CORNER LGT RAIN 52 50 93 CALM 29.98S SUMMERVILLE LGT RAIN 52 52 100 CALM 29.99F BEAUFORT MCAS LGT RAIN 68 64 87 S12G17 29.97F BEAUFORT ARPT PTSUNNY 70 64 83 S10G17 29.97F HILTON HEAD IS LGT RAIN 68 66 94 S12G20 29.98F WALTERBORO LGT RAIN 54 N/A N/A CALM 29.99S ALLENDALE LGT RAIN 48 48 100 CALM 29.99S ...SOUTHERN MIDLANDS AND PEE DEE... CITY SKY/WX TMP DP RH WIND PRES REMARKS GEORGETOWN NOT AVBL KINGSTREE RAIN 46 45 93 CALM 29.98S ORANGEBURG RAIN 46 45 96 N7 30.00S FOG BARNWELL NOT AVBL AIKEN RAIN 43 43 100 N6 30.05S MANNING NOT AVBL COLUMBIA HVY RAIN 46 43 89 N7 30.02F FOG SUMTER RAIN 45 43 93 VRB5 29.98F FLORENCE LGT RAIN 46 45 96 N6 29.99S FOG MYRTLE BEACH CLOUDY 64 61 88 S10 29.98F N MYRTLE BEACH RAIN 59 59 100 S5 29.96F FOG $$ GAZ063-065-086>088-099>101-113>116-118-119-134>141-150-050800- ...SOUTHEAST GEORGIA... CITY SKY/WX TMP DP RH WIND PRES REMARKS SAVANNAH ARPT CLOUDY 70 62 76 S12 29.98F HUNTER AAF CLOUDY 70 67 93 S12 29.96S FORT STEWART CLOUDY 68 63 83 S3 29.96S STATESBORO RAIN 53 53 99 CALM 30.00S SYLVANIA RAIN N/A N/A N/A N3 30.01S CLAXTON DRIZZLE N/A N/A N/A CALM 29.99F ...CSRA...CENTRAL AND FAR SOUTHEAST GEORGIA... CITY SKY/WX TMP DP RH WIND PRES REMARKS THOMSON CLOUDY 46 46 100 CALM 30.07F AUGUSTA-BUSH RAIN 48 45 89 N9 30.02S FOG AUGUSTA-DANIEL LGT RAIN 46 43 89 N8 30.03S SWAINSBORO LGT RAIN 50 48 93 N5 30.01F VIDALIA DRIZZLE 54 54 100 CALM 29.99S EASTMAN CLOUDY 51 51 99 N3 30.03R HAZLEHURST LGT RAIN 61 61 100 CALM 29.97S ALMA LGT RAIN 64 64 100 E3 29.97F FOG WAYCROSS CLOUDY 68 67 98 CALM 29.99S JESUP CLOUDY 68 66 94 CALM 29.99S BAXLEY DRIZZLE 63 63 100 CALM 29.97F BRUNSWICK CLOUDY 70 66 88 SW6 30.00S SAINT SIMONS MOCLDY 70 63 78 SW8 30.00S $$ SCZ027-028-034-036>038-045-046-048>050-GAZ119-141-050800- ...LAKE AND SUPPLEMENTAL COASTAL OBSERVATIONS... STATION/POSITION TIME TEMP WIND PRES WAVE SWELL AIR SEA DIR/SP/G HT/PER HT/PER/DIR (UTC) (F) (DEG/KT/KT) (MB) (FT/S) (FT/S/D) WINYAH BAY NOT AVBL LAKE MURRAY 0620 44 340/ 2/ 6 1016.9S ACE BASIN NERRS NOT AVBL FORT PULASKI 0642 67 61 220/ 10/ 15 1015.4F SAPELO ISLAND 0600 68 190/ 12 1015.0 $$ ANZ835-935-AMZ111-154-330-350-352-354-370-450-454-472-050800- ...C-MAN AND BUOY OBSERVATIONS... STATION/POSITION TIME TEMP WIND PRES WAVE SWELL AIR SEA DIR/SP/G HT/PER HT/PER/DIR (UTC) (F) (DEG/KT/KT) (MB) (FT/S) (FT/S/D) BUOY 41004 0650 75 74 190/ 23/ 29 1014.2F 7/ 6 BUOY 41008 0650 68 65 180/ 12/ 16 1015.1F 4/ 6 2/ 70/ 8 FOLLY BEACH CMAN 0600 65 190/ 13/ 13 1015.4F CAPERS NEARSHORE 0608 67 62 190/ 12/ 16 1014.6F FRIPP NEARSHORE 0608 66 62 220/ 8/ 12 1015.0F STATION/POSITION TIME TEMP WIND PRES WAVE SWELL AIR SEA DIR/SP/G HT/PER HT/PER/DIR (UTC) (F) (DEG/KT/KT) (MB) (FT/S) (FT/S/D) 5E ST. MARYS GA 0700 65 N/A 4/ 6 FRYING PAN BUOY 0650 72 74 180/ 23/ 29 1015.0F 6/ 6 2/ 90/ 9 BUOY 41025 0650 65 74 150/ 17/ 23 1016.7F 4/ 8 3/ 60/ 8 CAPE LOOKOUT NC 0600 62 160/ 12/ 14 1016.3F BUOY 41002 0650 68 73 170/ 14/ 17 1019.4S 4/ 9 3/ 10/ 9 BUOY 41010 NOT AVBL ST AUGUSTINE FL 0700 70 68 190/ 13/ 15 1016.6F $$

USA.gov is the U.S. government's official web portal to all federal, state and local government web resources and services.